Location: Cheyres
(46.8153°N, 6.7877°E)
Time: 01:53:46
(UTC+00:00)

Tiros 1 - Pass Details

Date: 30 May 2022
Orbit: 629 x 663 km, 48.4° (Epoch: 05 July)

Event Time Altitude Azimuth Distance (km) Brightness Sun altitude
Exits shadow 22:02:22 16° 97° (E) 1,648 9.0 -18.5°
Drops below altitude 10° 22:03:34 10° 86° (E) 2,011 9.5 -18.6°
Sets 22:06:11 0° 74° (ENE) 2,926 10.5 -18.7°
